Weather History for Enid, OK

Change the Weather History Date:

Friday, November 4, 2011

  Actual Average Record
Temperature  
Mean Temperature 42 °F -  
Max Temperature 60 °F 59 °F 84 °F (2005)
Min Temperature 24 °F 43 °F 24 °F (2011)
Degree Days  
Heating Degree Days 23    
Moisture  
Dew Point 26 °F    
Average Humidity 67    
Maximum Humidity 93    
Minimum Humidity 25    
Precipitation  
Precipitation 0.00 in - - ()
Sea Level Pressure  
Sea Level Pressure 30.16 in    
Wind  
Wind Speed 2 mph (South)    
Max Wind Speed 16 mph    
Max Gust Speed -    
Visibility 10 miles    
Events      
Averages and records for this station are not official NWS values.
T = Trace of Precipitation, MM = Missing Value Source: NWS Daily Summary

Daily Weather History Graph

Daily Weather History Graph

Search for Another Location

Airport:

Trip Planner

Search our weather history database for the weather conditions in past years. The results will help you decide how hot, cold, wet, or windy it might be!

Date:

Astronomy

Nov. 04, 2011 Rise Set
Actual Time 7:57 AM CDT 6:31 PM CDT
Civil Twilight 7:30 AM CDT 6:58 PM CDT
Nautical Twilight 6:59 AM CDT 7:29 PM CDT
Astronomical Twilight 6:29 AM CDT 7:59 PM CDT
Moon 3:15 PM CDT (11/4) 2:19 AM CDT (11/4)
Length of Visible Light 11h 28m
Length of Day
10h 34m
Waxing Gibbous, 69% of the Moon is Illuminated
Nov 4
Waxing Gibbous
Nov 10
Full
Nov 18
Last Quarter
Nov 25
New
Dec 2
First Quarter

Hourly Weather History & Observations

Time (CDT) Temp. Dew Point Humidity Pressure Visibility Wind Dir Wind Speed Gust Speed Precip Events Conditions
12:15 AM 32.0 °F 24.8 °F 75% 30.27 in 10.0 mi Calm Calm - N/A   Clear
12:55 AM 30.2 °F 24.8 °F 80% 30.26 in 10.0 mi Calm Calm - N/A   Clear
1:15 AM 30.2 °F 24.8 °F 80% 30.26 in 10.0 mi Calm Calm - N/A   Clear
1:55 AM 28.4 °F 23.0 °F 80% 30.25 in 10.0 mi Calm Calm - N/A   Clear
2:15 AM 30.2 °F 24.8 °F 80% 30.25 in 10.0 mi Calm Calm - N/A   Clear
2:35 AM 30.2 °F 23.0 °F 75% 30.25 in 10.0 mi Calm Calm - N/A   Clear
2:55 AM 30.2 °F 23.0 °F 75% 30.24 in 10.0 mi Calm Calm - N/A   Clear
3:15 AM 30.2 °F 24.8 °F 80% 30.24 in 10.0 mi Calm Calm - N/A   Clear
3:35 AM 28.4 °F 23.0 °F 80% 30.24 in 10.0 mi Calm Calm - N/A   Clear
3:55 AM 30.2 °F 24.8 °F 80% 30.24 in 10.0 mi Calm Calm - N/A   Clear
4:15 AM 28.4 °F 23.0 °F 80% 30.23 in 10.0 mi Calm Calm - N/A   Clear
4:35 AM 28.4 °F 23.0 °F 80% 30.22 in 10.0 mi Calm Calm - N/A   Clear
4:55 AM 28.4 °F 23.0 °F 80% 30.22 in 10.0 mi Calm Calm - N/A   Clear
5:15 AM 26.6 °F 21.2 °F 80% 30.22 in 10.0 mi Calm Calm - N/A   Clear
5:35 AM 26.6 °F 23.0 °F 86% 30.22 in 10.0 mi Calm Calm - N/A   Clear
6:17 AM 26.6 °F 23.0 °F 86% 30.23 in 10.0 mi Calm Calm - N/A   Clear
7:50 AM 24.8 °F 23.0 °F 93% 30.22 in 10.0 mi Calm Calm - N/A   Clear
8:55 AM 30.2 °F 28.4 °F 93% 30.25 in 10.0 mi Calm Calm - N/A   Partly Cloudy
10:55 AM 48.2 °F 32.0 °F 54% 30.25 in 10.0 mi South 10.4 mph - N/A   Scattered Clouds
11:50 AM 51.8 °F 30.2 °F 44% - 10.0 mi South 11.5 mph - N/A   Scattered Clouds
12:50 PM 55.4 °F 26.6 °F 33% 30.18 in 10.0 mi South 13.8 mph - N/A   Scattered Clouds
1:55 PM 57.2 °F 28.4 °F 33% 30.14 in 10.0 mi South 13.8 mph - N/A   Mostly Cloudy
2:50 PM 57.2 °F 26.6 °F 31% 30.11 in 10.0 mi South 13.8 mph - N/A   Mostly Cloudy
3:50 PM 60.8 °F 24.8 °F 25% 30.08 in 10.0 mi South 16.1 mph - N/A   Mostly Cloudy
5:50 PM 59.0 °F 24.8 °F 27% 30.04 in 10.0 mi SSE 11.5 mph - N/A   Mostly Cloudy
6:50 PM 50.0 °F 24.8 °F 37% 30.04 in 10.0 mi SSE 9.2 mph - N/A   Scattered Clouds
9:15 PM 41.0 °F 26.6 °F 57% 30.03 in 10.0 mi Calm Calm - N/A   Clear
9:35 PM 37.4 °F 26.6 °F 65% 30.02 in 10.0 mi Calm Calm - N/A   Clear
9:55 PM 39.2 °F 28.4 °F 65% 30.02 in 10.0 mi Calm Calm - N/A   Clear
10:15 PM 37.4 °F 28.4 °F 70% 30.03 in 10.0 mi Calm Calm - N/A   Clear
10:35 PM 39.2 °F 28.4 °F 65% 30.03 in 10.0 mi Calm Calm - N/A   Clear
10:55 PM 37.4 °F 28.4 °F 70% 30.03 in 10.0 mi Calm Calm - N/A   Clear
11:15 PM 37.4 °F 28.4 °F 70% 30.03 in 10.0 mi Calm Calm - N/A   Clear
11:35 PM 37.4 °F 28.4 °F 70% 30.03 in 10.0 mi Calm Calm - N/A   Clear
11:55 PM 37.4 °F 28.4 °F 70% 30.02 in 10.0 mi Calm Calm - N/A   Clear